Regional Weather Roundup
Issued by NWS

Home | Current Version | Previous Version | Text Only | Print | Product List | Glossary Off
Versions: 1 2 3 4 5 6 7 8 9 10 11 12 13 14 15 16 17 18 19 20 21 22 23 24 25 26 27 28 29 30 31 32 33 34 35 36 37 38 39 40 41 42 43 44 45 46 47 48 49 50

891
ASUS43 KBIS 140610
RWRND

NORTH DAKOTA REGIONAL WEATHER ROUNDUP
NATIONAL WEATHER SERVICE BISMARCK ND
1200 AM CST SUN FEB 14 2016

NOTE: "FAIR" INDICATES FEW OR NO CLOUDS BELOW 12,000 FEET WITH NO
SIGNIFICANT WEATHER AND/OR OBSTRUCTIONS TO VISIBILITY.


NDZ001>003-009>011-017-140700-
NORTHWEST NORTH DAKOTA

CITY           SKY/WX    TMP DP  RH WIND       PRES   REMARKS
WILLISTON      CLOUDY    28  23  81 NW9       29.82S WCI  19
6HR MIN TEMP:  22; 6HR MAX TEMP:  32;

MINOT          LGT SNOW  19  12  74 SE6       29.77F WCI  11
MINOT AFB      LGT SNOW  16  14  93 CALM      29.77F FOG
$$

NDZ018>021-031>035-040>046-140700-
SOUTHWEST NORTH DAKOTA

CITY           SKY/WX    TMP DP  RH WIND       PRES   REMARKS
BISMARCK       CLOUDY    19  14  81 SE12      29.83F HAZE    WCI   7
6HR MIN TEMP:  18; 6HR MAX TEMP:  19; 6HR PCP:  0.07;

DICKINSON      CLOUDY    32  29  88 NW22G30   29.76R WCI  19
GARRISON         N/A     18  16  92 S3        29.76F
6HR MIN TEMP:  14; 6HR MAX TEMP:  18; 6HR PCP:  0.04;

HETTINGER ARPT CLOUDY    36  32  85 NW18      29.79F
$$

NDZ004>008-012>016-024-026-027-054-140700-
NORTHEAST NORTH DAKOTA

CITY           SKY/WX    TMP DP  RH WIND       PRES   REMARKS
GRAND FORKS    LGT SNOW  13   6  74 S21G33    30.03F VSB 1   WCI  -5
GRND FRKS AFB  LGT SNOW  10   7  85 S22       30.01S WCI  -9
DEVILS LAKE    LGT SNOW  11   7  84 S18G25    29.89F FOG     WCI  -7
$$

NDZ022-023-025-028>030-036>039-047>053-140700-
SOUTHEAST NORTH DAKOTA

CITY           SKY/WX    TMP DP  RH WIND       PRES   REMARKS
FARGO          CLOUDY    13   2  61 S16G31    30.07F WCI  -3
6HR MIN TEMP:  13; 6HR MAX TEMP:  15; 6HR PCP: TRACE;

JAMESTOWN      LGT SNOW  13   8  81 S16G28    29.90F WCI  -3
$$





USA.gov is the U.S. government's official web portal to all federal, state and local government web resources and services.